Location: Unspecified
(0.0000°N, 0.0000°E)
Time: 06:29:42
(UTC+00:00)

Transit 4A - Visible Passes

Search period start: 20 October 2021 00:00
Search period end: 30 October 2021 00:00
Orbit: 869 x 975 km, 66.8° (Epoch: 19 October)

Date Brightness Start Highest point End Pass type
(mag) Time Alt. Az. Time Alt. Az. Time Alt. Az.
20 Oct 10.1 03:00:14 10° SSE 03:04:12 19° ESE 03:08:08 10° ENE visible
20 Oct 8.4 04:45:07 10° SW 04:50:16 32° WNW 04:55:22 10° N visible
21 Oct 9.3 03:10:50 22° SSE 03:13:29 32° ESE 03:18:35 10° NE visible
21 Oct 9.0 04:55:36 10° WSW 04:59:30 19° WNW 05:03:24 10° NNW visible
22 Oct 9.1 03:25:23 31° NE 03:25:23 31° NE 03:28:23 10° NNE visible
23 Oct 10.0 03:37:16 12° NNE 03:37:16 12° NNE 03:37:44 10° NNE visible
